Voltar ao catálogo

KSLV-II R/B

AtivoSSO
NORAD 66663·ROCKET BODY·🇰🇷 South Korea

Lançado Nov 26, 2025 de Naro Space Center

Loading…

Próximas Passagens (próximas 24 horas)

TLE

AtualizadoSource: Space-Track

Época: Sep 14, 2026, 13:25 UTC

1 66663U 25274P   26257.55952632  .00005791  00000-0  46535-3 0  9994
2 66663  97.7535 188.0398 0064761 102.3206 258.5277 14.98755717 43715

Acompanhe KSLV-II R/B em tempo real com AllMySat

Download on the App Store